User: anonymous   Login
Location: Unspecified
(0.0000°N, 0.0000°E)
Time: 20:49:16
(UTC+00:00)
Language:

USA 224 - Orbit

View from above orbital plane
View from above orbital plane
View from above satellite
View from above satellite

Ground track
Ground track

The orbit data is extracted from the following two-line orbital elements,

1 37348U 11002A   19239.00965638 0.00010600  00000-0  95384-4 0    03
2 37348  97.9000 349.1166 0536016 134.6567 225.3431 14.78336728    04
Epoch (UTC): 27 August 2019 00:13:54
Eccentricity: 0.0536016
inclination: 97.9000°
perigee height: 258 km
apogee height: 1010 km
right ascension of ascending node: 349.1166°
argument of perigee: 134.6567°
revolutions per day: 14.78336728
mean anomaly at epoch: 225.3431°
orbit number at epoch: 0

The dashed part of the orbit path shows where the satellite is in the earth's shadow,  

DLR